This is the latest recevied weather packets stored in our database for station/object HB9TJM-8. If no packets are shown the sender has not sent any weather packets the latest 1 day(s).
| Time | Temp. | Humidity | Pressure | Rain* | Wind** | Luminosity | Snow |
|---|---|---|---|---|---|---|---|
| 1778032018 | 7.22° C | 92% | 1008.9 hPa | 0 mm | - | 0 W/m² | - |
| 1778031710 | 7.22° C | 92% | 1009.3 hPa | 0 mm | - | 0 W/m² | - |
| 1778031403 | 7.22° C | 91% | 1009.2 hPa | 0 mm | - | 0 W/m² | - |
| 1778030788 | 7.22° C | 91% | 1009.5 hPa | 0 mm | - | 0 W/m² | - |
| 1778030480 | 7.78° C | 91% | 1009.2 hPa | 0 mm | - | 0 W/m² | - |
| 1778030172 | 7.78° C | 90% | 1009.8 hPa | 0 mm | - | 0 W/m² | - |
| 1778029865 | 7.78° C | 91% | 1009.7 hPa | 0 mm | - | 0 W/m² | - |
| 1778029558 | 7.78° C | 90% | 1009.8 hPa | 0 mm | - | 0 W/m² | - |
| 1778028943 | 7.78° C | 91% | 1009.8 hPa | 0 mm | - | 0 W/m² | - |
| 1778028635 | 7.78° C | 91% | 1009.4 hPa | 0 mm | - | 0 W/m² | - |
| 1778028020 | 7.78° C | 93% | 1009.8 hPa | 0 mm | - | 0 W/m² | - |
| 1778027405 | 7.78° C | 93% | 1009.9 hPa | 0 mm | - | 0 W/m² | - |
| 1778027097 | 7.78° C | 92% | 1010.3 hPa | 0 mm | - | 0 W/m² | - |
| 1778026482 | 8.33° C | 91% | 1010.4 hPa | 0 mm | - | 0 W/m² | - |
| 1778026175 | 8.33° C | 90% | 1010.3 hPa | 0 mm | - | 0 W/m² | - |
| 1778025253 | 8.33° C | 91% | 1010.7 hPa | 0 mm | - | 0 W/m² | - |
| 1778024024 | 7.78° C | 90% | 1010.8 hPa | 0 mm | - | 0 W/m² | - |
| 1778022179 | 8.33° C | 87% | 1010.7 hPa | 0 mm | - | 0 W/m² | - |
| 1778021257 | 8.33° C | 90% | 1011.3 hPa | 0 mm | - | 0 W/m² | - |
| 1778020950 | 8.33° C | 90% | 1011.1 hPa | 0 mm | - | 0 W/m² | - |
| 1778019412 | 8.89° C | 87% | 1011.3 hPa | 0 mm | - | 0 W/m² | - |
| 1778018490 | 8.89° C | 85% | 1011.6 hPa | 0 mm | - | 0 W/m² | - |
| 1778016645 | 8.89° C | 84% | 1011.3 hPa | 0 mm | - | 0 W/m² | - |
| 1778016338 | 8.89° C | 85% | 1011.3 hPa | 0 mm | - | 0 W/m² | - |
| 1778015723 | 8.33° C | 84% | 1010.9 hPa | 0 mm | - | 0 W/m² | - |
* Rain latest hour (hover to see other rain measurements)
** Current wind speed in m/s (hover to see current wind gust speed)